sat.trackr.live / text

‹ back to catalog

STARLINK-5745

NORAD 55575 · 2023-020G

PAYLOAD ACTIVE UNKNOWN

§ Identity

Operator
Country
US
Launch date
2023-02-12
Launch site
AFETR
Launch vehicle
Mass (kg)
RCS (m²)

Purposes: comms

External: N2YO · Heavens-Above · Gunter

§ Orbital elements

Epoch: 2026-05-25T03:18:00.063072Z

Period
94.27 min
Inclination
43.0015°
Eccentricity
0.0001169
Mean motion
15.27581297 rev/d
Perigee alt
482.2 km
Apogee alt
483.8 km
Semi-major
6,861.2 km
B*
1.6139e-5
RAAN
296.9507°
Arg perigee
275.5355°
Mean anomaly
84.5363°
Rev number
18,056

§ Raw data

STARLINK-57451 55575U 23020G   26145.13750073  .00000182  00000+0  16139-4 0  99922 55575  43.0015 296.9507 0001169 275.5355  84.5363 15.27581297180565

JSON: /api/v1/satellites/55575 · /tle

For live sub-satellite position, see the globe view (requires WebGL).

§ Visibility from observer

Set your observer location to see the next 7 days of passes ≥ 10°. The values pass through the URL so the page stays shareable.

No JS? Fill the form by hand. The geolocation button needs JavaScript.